| time (UTC) | temp C | wind direction | speed KPH | gust KPH | rain 1hr cm | rain 24hr cm | rain mn cm | humidity % | barometer mb |
| 20260507153113 | 6 | 315 | 0.0 | 0.0 | 0.00 | 0.00 | 0.00 | 85 | 853.2 |
| 20260507152613 | 6 | 180 | 0.0 | 4.8 | 0.00 | 0.00 | 0.00 | 85 | 853.2 |
| 20260507152113 | 7 | 180 | 0.0 | 1.6 | 0.00 | 0.00 | 0.00 | 85 | 853.3 |
| 20260507151613 | 7 | 180 | 0.0 | 0.0 | 0.00 | 0.00 | 0.00 | 84 | 853.1 |
| 20260507151113 | 7 | 180 | 0.0 | 4.8 | 0.00 | 0.00 | 0.00 | 84 | 853.1 |
| 20260507150613 | 7 | 180 | 4.8 | 8.0 | 0.00 | 0.00 | 0.00 | 83 | 853.1 |
| 20260507150113 | 7 | 0 | 0.0 | 6.4 | 0.00 | 0.00 | 0.00 | 84 | 853.1 |
| 20260507145613 | 8 | 135 | 0.0 | 3.2 | 0.00 | 0.00 | 0.00 | 84 | 853.1 |
| 20260507145113 | 8 | 180 | 0.0 | 1.6 | 0.00 | 0.00 | 0.00 | 84 | 853.2 |
| 20260507144613 | 8 | 157 | 0.0 | 0.0 | 0.00 | 0.00 | 0.00 | 84 | 853.1 |
| 20260507144113 | 8 | 247 | 0.0 | 0.0 | 0.00 | 0.00 | 0.00 | 84 | 853.0 |
| 20260507143613 | 8 | 180 | 0.0 | 0.0 | 0.00 | 0.00 | 0.00 | 84 | 853.1 |
| 20260507143113 | 8 | 180 | 0.0 | 3.2 | 0.00 | 0.00 | 0.00 | 83 | 853.1 |
| 20260507142613 | 7 | 292 | 0.0 | 0.0 | 0.00 | 0.00 | 0.00 | 84 | 853.1 |
| 20260507142113 | 7 | 247 | 0.0 | 0.0 | 0.00 | 0.00 | 0.00 | 84 | 853.1 |
| 20260507141613 | 7 | 270 | 0.0 | 0.0 | 0.00 | 0.00 | 0.00 | 84 | 853.1 |
| 20260507141113 | 7 | 292 | 0.0 | 0.0 | 0.00 | 0.00 | 0.00 | 84 | 853.1 |
| 20260507140613 | 7 | 337 | 0.0 | 0.0 | 0.00 | 0.00 | 0.00 | 84 | 853.0 |
| 20260507140113 | 7 | 315 | 0.0 | 0.0 | 0.00 | 0.00 | 0.00 | 83 | 852.9 |
| 20260507135613 | 7 | 315 | 0.0 | 0.0 | 0.00 | 0.00 | 0.00 | 85 | 852.9 |
| 20260507135113 | 7 | 315 | 0.0 | 0.0 | 0.00 | 0.00 | 0.00 | 85 | 853.0 |
| 20260507134613 | 7 | 292 | 0.0 | 0.0 | 0.00 | 0.00 | 0.00 | 87 | 853.0 |
| 20260507134113 | 6 | 22 | 0.0 | 0.0 | 0.00 | 0.00 | 0.00 | 87 | 853.1 |
| 20260507133613 | 6 | 270 | 0.0 | 0.0 | 0.00 | 0.00 | 0.00 | 87 | 853.0 |
| 20260507133113 | 6 | 0 | 0.0 | 0.0 | 0.00 | 0.00 | 0.00 | 87 | 853.0 |
| 20260507132613 | 6 | 157 | 0.0 | 0.0 | 0.00 | 0.00 | 0.00 | 87 | 853.1 |
| 20260507132113 | 6 | 337 | 0.0 | 0.0 | 0.00 | 0.00 | 0.00 | 88 | 853.2 |
| 20260507131613 | 5 | 337 | 0.0 | 0.0 | 0.00 | 0.00 | 0.00 | 89 | 853.2 |
| 20260507131113 | 5 | 315 | 0.0 | 0.0 | 0.00 | 0.00 | 0.00 | 89 | 853.2 |
| 20260507130613 | 4 | 315 | 0.0 | 0.0 | 0.00 | 0.00 | 0.00 | 90 | 853.2 |
| 20260507130113 | 3 | 315 | 0.0 | 0.0 | 0.00 | 0.00 | 0.00 | 90 | 853.2 |
| 20260507125613 | 3 | 270 | 0.0 | 0.0 | 0.00 | 0.00 | 0.00 | 91 | 853.1 |
| 20260507125113 | 3 | 315 | 0.0 | 0.0 | 0.00 | 0.00 | 0.00 | 91 | 853.1 |
| 20260507124613 | 2 | 315 | 0.0 | 0.0 | 0.00 | 0.00 | 0.00 | 91 | 853.1 |
| 20260507124113 | 2 | 337 | 0.0 | 0.0 | 0.00 | 0.00 | 0.00 | 91 | 853.2 |
| 20260507123614 | 2 | 337 | 0.0 | 0.0 | 0.00 | 0.00 | 0.00 | 91 | 853.1 |
| 20260507123113 | 2 | 180 | 0.0 | 0.0 | 0.00 | 0.00 | 0.00 | 91 | 853.1 |
| 20260507122613 | 2 | 270 | 0.0 | 3.2 | 0.00 | 0.00 | 0.00 | 91 | 853.1 |
| 20260507122113 | 2 | 45 | 0.0 | 4.8 | 0.00 | 0.00 | 0.00 | 91 | 853.1 |
| 20260507121613 | 2 | 337 | 0.0 | 1.6 | 0.00 | 0.00 | 0.00 | 91 | 853.1 |
| 20260507121113 | 2 | 337 | 0.0 | 0.0 | 0.00 | 0.00 | 0.00 | 91 | 853.3 |
| 20260507120613 | 2 | 180 | 0.0 | 0.0 | 0.00 | 0.00 | 0.00 | 91 | 853.3 |
| 20260507120113 | 3 | 180 | 0.0 | 0.0 | 0.00 | 0.00 | 0.00 | 91 | 853.1 |
| 20260507115613 | 3 | 337 | 0.0 | 0.0 | 0.00 | 0.00 | 0.00 | 91 | 853.1 |
| 20260507115113 | 3 | 180 | 0.0 | 0.0 | 0.00 | 0.00 | 0.00 | 91 | 853.0 |
| 20260507114613 | 3 | 22 | 0.0 | 0.0 | 0.00 | 0.00 | 0.00 | 92 | 853.0 |
| 20260507114113 | 3 | 45 | 0.0 | 0.0 | 0.00 | 0.00 | 0.00 | 92 | 853.1 |
| 20260507113613 | 3 | 315 | 0.0 | 0.0 | 0.00 | 0.00 | 0.00 | 92 | 852.9 |
| 20260507113113 | 4 | 180 | 0.0 | 4.8 | 0.00 | 0.00 | 0.00 | 92 | 852.9 |
| 20260507112613 | 4 | 180 | 3.2 | 4.8 | 0.00 | 0.00 | 0.00 | 92 | 852.8 |
| 20260507112113 | 4 | 90 | 0.0 | 4.8 | 0.00 | 0.00 | 0.00 | 92 | 852.8 |
| 20260507111613 | 4 | 180 | 1.6 | 8.0 | 0.00 | 0.00 | 0.00 | 92 | 852.9 |
| 20260507111113 | 5 | 180 | 0.0 | 6.4 | 0.00 | 0.00 | 0.00 | 91 | 852.9 |
| 20260507110613 | 5 | 180 | 3.2 | 8.0 | 0.00 | 0.00 | 0.00 | 91 | 852.8 |
| 20260507110113 | 5 | 180 | 0.0 | 8.0 | 0.00 | 0.00 | 0.00 | 91 | 852.6 |
| 20260507105613 | 5 | 180 | 4.8 | 6.4 | 0.00 | 0.00 | 0.00 | 90 | 852.7 |
| 20260507105113 | 5 | 135 | 0.0 | 3.2 | 0.00 | 0.00 | 0.00 | 90 | 852.8 |
| 20260507104613 | 5 | 0 | 0.0 | 0.0 | 0.00 | 0.00 | 0.00 | 90 | 852.8 |
| 20260507104113 | 5 | 0 | 0.0 | 4.8 | 0.00 | 0.00 | 0.00 | 90 | 852.9 |
| 20260507103613 | 5 | 180 | 0.0 | 6.4 | 0.00 | 0.00 | 0.00 | 90 | 852.9 |
| 20260507103113 | 5 | 180 | 3.2 | 8.0 | 0.00 | 0.00 | 0.00 | 89 | 852.8 |
| 20260507102613 | 6 | 157 | 3.2 | 6.4 | 0.00 | 0.00 | 0.00 | 88 | 852.8 |
| 20260507102113 | 6 | 90 | 0.0 | 1.6 | 0.00 | 0.00 | 0.00 | 87 | 852.7 |
| 20260507101613 | 6 | 0 | 0.0 | 3.2 | 0.00 | 0.00 | 0.00 | 87 | 852.7 |
| 20260507101113 | 7 | 180 | 0.0 | 0.0 | 0.00 | 0.00 | 0.00 | 87 | 852.9 |
| 20260507100613 | 7 | 180 | 0.0 | 0.0 | 0.00 | 0.00 | 0.00 | 87 | 852.9 |
| 20260507100113 | 7 | 180 | 0.0 | 8.0 | 0.00 | 0.00 | 0.00 | 88 | 852.9 |
| 20260507095613 | 6 | 180 | 0.0 | 0.0 | 0.00 | 0.00 | 0.00 | 87 | 853.0 |
| 20260507095113 | 7 | 180 | 0.0 | 4.8 | 0.00 | 0.00 | 0.00 | 86 | 853.0 |
| 20260507094613 | 7 | 180 | 0.0 | 0.0 | 0.00 | 0.00 | 0.00 | 86 | 852.8 |
| 20260507094114 | 7 | 180 | 0.0 | 0.0 | 0.00 | 0.00 | 0.00 | 86 | 852.9 |
| 20260507093613 | 7 | 180 | 0.0 | 0.0 | 0.00 | 0.00 | 0.00 | 86 | 852.7 |
| 20260507093113 | 6 | 67 | 0.0 | 0.0 | 0.00 | 0.00 | 0.00 | 86 | 852.8 |
| 20260507092613 | 6 | 45 | 0.0 | 0.0 | 0.00 | 0.00 | 0.00 | 86 | 852.8 |
| 20260507092113 | 6 | 22 | 0.0 | 0.0 | 0.00 | 0.00 | 0.00 | 86 | 852.7 |
| 20260507091613 | 6 | 0 | 0.0 | 1.6 | 0.00 | 0.00 | 0.00 | 86 | 852.7 |
| 20260507091114 | 6 | 0 | 0.0 | 1.6 | 0.00 | 0.00 | 0.00 | 86 | 852.6 |
| 20260507090614 | 6 | 0 | 0.0 | 3.2 | 0.00 | 0.00 | 0.00 | 86 | 852.6 |
| 20260507090114 | 6 | 112 | 0.0 | 0.0 | 0.00 | 0.00 | 0.00 | 87 | 852.6 |
| 20260507085614 | 6 | 180 | 0.0 | 0.0 | 0.00 | 0.00 | 0.00 | 87 | 852.7 |
| 20260507085114 | 6 | 180 | 0.0 | 0.0 | 0.00 | 0.00 | 0.00 | 87 | 852.6 |
| 20260507084614 | 6 | 0 | 0.0 | 0.0 | 0.00 | 0.00 | 0.00 | 87 | 852.6 |
| 20260507084114 | 6 | 0 | 0.0 | 4.8 | 0.00 | 0.00 | 0.00 | 86 | 852.6 |
| 20260507083614 | 6 | 0 | 0.0 | 0.0 | 0.00 | 0.00 | 0.00 | 86 | 852.5 |
| 20260507083114 | 6 | 180 | 0.0 | 0.0 | 0.00 | 0.00 | 0.00 | 86 | 852.5 |
| 20260507082614 | 6 | 180 | 0.0 | 0.0 | 0.00 | 0.00 | 0.00 | 86 | 852.5 |
| 20260507082114 | 6 | 180 | 0.0 | 0.0 | 0.00 | 0.00 | 0.00 | 85 | 852.4 |
| 20260507081614 | 6 | 180 | 0.0 | 0.0 | 0.00 | 0.00 | 0.00 | 85 | 852.4 |
| 20260507081114 | 7 | 0 | 0.0 | 0.0 | 0.00 | 0.00 | 0.00 | 84 | 852.2 |
| 20260507080614 | 8 | 180 | 0.0 | 0.0 | 0.00 | 0.00 | 0.00 | 83 | 852.3 |
| 20260507080114 | 8 | 180 | 0.0 | 0.0 | 0.00 | 0.00 | 0.00 | 84 | 852.2 |
| 20260507075614 | 8 | 180 | 0.0 | 0.0 | 0.00 | 0.00 | 0.00 | 85 | 852.3 |
| 20260507075114 | 7 | 112 | 0.0 | 3.2 | 0.00 | 0.00 | 0.00 | 86 | 852.0 |
| 20260507074614 | 6 | 180 | 0.0 | 1.6 | 0.00 | 0.00 | 0.00 | 86 | 852.0 |
| 20260507074114 | 6 | 180 | 0.0 | 3.2 | 0.00 | 0.00 | 0.00 | 86 | 852.0 |
| 20260507073614 | 6 | 180 | 0.0 | 3.2 | 0.00 | 0.00 | 0.00 | 86 | 852.0 |
| 20260507073114 | 5 | 22 | 0.0 | 0.0 | 0.00 | 0.00 | 0.00 | 85 | 851.9 |
| 20260507072614 | 5 | 180 | 0.0 | 0.0 | 0.00 | 0.00 | 0.00 | 84 | 851.9 |
| 20260507072114 | 5 | 157 | 0.0 | 0.0 | 0.00 | 0.00 | 0.00 | 84 | 851.9 |
| 20260507071614 | 5 | 180 | 0.0 | 0.0 | 0.00 | 0.00 | 0.00 | 83 | 851.9 |
| 20260507071114 | 6 | 180 | 0.0 | 0.0 | 0.00 | 0.00 | 0.00 | 82 | 851.8 |
| 20260507070614 | 6 | 202 | 0.0 | 0.0 | 0.00 | 0.00 | 0.00 | 82 | 851.8 |
| 20260507070114 | 6 | 202 | 0.0 | 0.0 | 0.00 | 0.00 | 0.00 | 82 | 851.7 |
| 20260507065614 | 6 | 202 | 0.0 | 0.0 | 0.00 | 0.00 | 0.00 | 80 | 851.7 |
| 20260507065114 | 7 | 225 | 0.0 | 0.0 | 0.00 | 0.00 | 0.00 | 79 | 851.6 |
| 20260507064614 | 7 | 225 | 0.0 | 0.0 | 0.00 | 0.00 | 0.00 | 79 | 851.6 |
| 20260507064114 | 8 | 225 | 0.0 | 0.0 | 0.00 | 0.00 | 0.00 | 79 | 851.6 |
| 20260507063614 | 8 | 225 | 0.0 | 0.0 | 0.00 | 0.00 | 0.00 | 80 | 851.6 |
| 20260507063114 | 8 | 225 | 0.0 | 0.0 | 0.00 | 0.00 | 0.00 | 80 | 851.6 |
| 20260507062614 | 8 | 225 | 0.0 | 0.0 | 0.00 | 0.00 | 0.00 | 80 | 851.6 |
| 20260507062114 | 8 | 225 | 0.0 | 0.0 | 0.00 | 0.00 | 0.00 | 80 | 851.5 |
| 20260507061614 | 7 | 315 | 0.0 | 0.0 | 0.00 | 0.00 | 0.00 | 81 | 851.6 |
| 20260507061114 | 7 | 270 | 0.0 | 0.0 | 0.00 | 0.00 | 0.00 | 81 | 851.5 |
| 20260507060614 | 7 | 270 | 0.0 | 0.0 | 0.00 | 0.00 | 0.00 | 81 | 851.5 |
| 20260507060114 | 6 | 315 | 0.0 | 0.0 | 0.00 | 0.00 | 0.00 | 81 | 851.4 |
| 20260507055614 | 6 | 315 | 0.0 | 0.0 | 0.00 | 0.00 | 0.00 | 80 | 851.3 |
| 20260507055114 | 6 | 315 | 0.0 | 0.0 | 0.00 | 0.00 | 0.00 | 81 | 851.3 |
| 20260507054614 | 6 | 337 | 0.0 | 0.0 | 0.00 | 0.00 | 0.00 | 81 | 851.2 |
| 20260507054114 | 7 | 337 | 0.0 | 0.0 | 0.00 | 0.00 | 0.00 | 81 | 851.3 |
| 20260507053614 | 7 | 0 | 0.0 | 0.0 | 0.00 | 0.00 | 0.00 | 81 | 851.3 |
| 20260507053114 | 8 | 315 | 0.0 | 0.0 | 0.00 | 0.00 | 0.00 | 80 | 851.3 |
| 20260507052614 | 8 | 315 | 0.0 | 0.0 | 0.00 | 0.00 | 0.00 | 79 | 851.3 |
| 20260507052114 | 10 | 315 | 0.0 | 0.0 | 0.00 | 0.00 | 0.00 | 80 | 851.1 |
| 20260507051614 | 10 | 315 | 0.0 | 0.0 | 0.00 | 0.00 | 0.00 | 81 | 851.1 |
| 20260507051114 | 9 | 270 | 0.0 | 0.0 | 0.00 | 0.00 | 0.00 | 84 | 851.0 |
| 20260507050614 | 8 | 337 | 0.0 | 0.0 | 0.00 | 0.00 | 0.00 | 86 | 851.0 |
| 20260507050114 | 7 | 337 | 0.0 | 0.0 | 0.00 | 0.00 | 0.00 | 88 | 850.9 |
| 20260507045614 | 5 | 315 | 0.0 | 0.0 | 0.00 | 0.00 | 0.00 | 91 | 850.8 |
| 20260507045114 | 3 | 315 | 0.0 | 0.0 | 0.00 | 0.00 | 0.00 | 91 | 850.9 |
| 20260507044614 | 3 | 337 | 0.0 | 0.0 | 0.00 | 0.00 | 0.00 | 91 | 850.8 |
| 20260507044114 | 2 | 337 | 0.0 | 0.0 | 0.00 | 0.00 | 0.00 | 91 | 850.8 |
| 20260507043614 | 2 | 337 | 0.0 | 0.0 | 0.00 | 0.00 | 0.00 | 91 | 850.7 |
| 20260507043114 | 2 | 337 | 0.0 | 0.0 | 0.00 | 0.00 | 0.00 | 92 | 850.7 |
| 20260507042614 | 2 | 337 | 0.0 | 0.0 | 0.00 | 0.00 | 0.00 | 92 | 850.7 |
| 20260507042114 | 1 | 337 | 0.0 | 0.0 | 0.00 | 0.00 | 0.00 | 92 | 850.7 |
| 20260507041614 | 1 | 337 | 0.0 | 0.0 | 0.00 | 0.00 | 0.00 | 92 | 850.6 |
| 20260507041114 | 1 | 337 | 0.0 | 0.0 | 0.00 | 0.00 | 0.00 | 92 | 850.6 |
| 20260507040614 | 1 | 315 | 0.0 | 0.0 | 0.00 | 0.00 | 0.00 | 91 | 850.6 |
| 20260507040114 | 1 | 315 | 0.0 | 0.0 | 0.00 | 0.00 | 0.00 | 91 | 850.7 |
| 20260507035614 | 1 | 337 | 0.0 | 0.0 | 0.00 | 0.00 | 0.00 | 91 | 850.7 |
| 20260507035114 | 1 | 337 | 0.0 | 0.0 | 0.00 | 0.00 | 0.00 | 91 | 850.7 |
| 20260507034614 | 1 | 270 | 0.0 | 0.0 | 0.00 | 0.00 | 0.00 | 90 | 850.6 |
| 20260507034114 | 1 | 202 | 0.0 | 0.0 | 0.00 | 0.00 | 0.00 | 90 | 850.6 |
| 20260507033614 | 1 | 202 | 0.0 | 0.0 | 0.00 | 0.00 | 0.00 | 90 | 850.6 |
| 20260507033114 | 1 | 270 | 0.0 | 0.0 | 0.00 | 0.00 | 0.00 | 90 | 850.7 |
| 20260507032614 | 1 | 315 | 0.0 | 0.0 | 0.00 | 0.00 | 0.00 | 90 | 850.7 |
| 20260507032114 | 1 | 315 | 0.0 | 0.0 | 0.00 | 0.00 | 0.00 | 90 | 850.6 |
| 20260507031614 | 1 | 315 | 0.0 | 0.0 | 0.00 | 0.00 | 0.00 | 89 | 850.6 |
| 20260507031114 | 1 | 292 | 0.0 | 0.0 | 0.00 | 0.00 | 0.00 | 89 | 850.6 |
| 20260507030614 | 1 | 337 | 0.0 | 0.0 | 0.00 | 0.00 | 0.00 | 88 | 850.7 |
| 20260507030114 | 1 | 337 | 0.0 | 0.0 | 0.00 | 0.00 | 0.00 | 88 | 850.7 |
| 20260507025614 | 1 | 315 | 0.0 | 0.0 | 0.00 | 0.00 | 0.00 | 87 | 850.7 |
| 20260507025114 | 1 | 315 | 0.0 | 0.0 | 0.00 | 0.00 | 0.00 | 87 | 850.6 |
| 20260507024614 | 1 | 315 | 0.0 | 0.0 | 0.00 | 0.00 | 0.00 | 86 | 850.6 |
| 20260507024114 | 1 | 270 | 0.0 | 0.0 | 0.00 | 0.00 | 0.00 | 86 | 850.7 |
| 20260507023614 | 1 | 292 | 0.0 | 0.0 | 0.00 | 0.00 | 0.00 | 86 | 850.7 |
| 20260507023114 | 1 | 247 | 0.0 | 0.0 | 0.00 | 0.00 | 0.00 | 86 | 850.7 |
| 20260507022614 | 1 | 292 | 0.0 | 0.0 | 0.00 | 0.00 | 0.00 | 86 | 850.7 |
| 20260507022114 | 1 | 292 | 0.0 | 0.0 | 0.00 | 0.00 | 0.00 | 86 | 850.6 |
| 20260507021614 | 1 | 292 | 0.0 | 0.0 | 0.00 | 0.00 | 0.00 | 86 | 850.7 |
| 20260507021115 | 1 | 270 | 0.0 | 0.0 | 0.00 | 0.00 | 0.00 | 86 | 850.8 |
| 20260507020614 | 1 | 270 | 0.0 | 0.0 | 0.00 | 0.00 | 0.00 | 86 | 850.9 |
| 20260507020114 | 1 | 270 | 0.0 | 0.0 | 0.00 | 0.00 | 0.00 | 86 | 850.8 |
| 20260507015614 | 1 | 292 | 0.0 | 0.0 | 0.00 | 0.00 | 0.00 | 87 | 850.8 |
| 20260507015114 | 1 | 292 | 0.0 | 0.0 | 0.00 | 0.00 | 0.00 | 88 | 850.7 |
| 20260507014614 | 1 | 315 | 0.0 | 0.0 | 0.00 | 0.00 | 0.00 | 88 | 850.8 |
| 20260507014114 | 1 | 180 | 0.0 | 0.0 | 0.00 | 0.00 | 0.00 | 89 | 850.8 |
| 20260507013614 | 1 | 292 | 0.0 | 0.0 | 0.00 | 0.00 | 0.00 | 89 | 850.8 |
| 20260507013114 | 1 | 292 | 0.0 | 0.0 | 0.00 | 0.00 | 0.00 | 89 | 850.8 |
| 20260507012614 | 1 | 270 | 0.0 | 0.0 | 0.00 | 0.00 | 0.00 | 88 | 850.7 |
| 20260507012114 | 1 | 0 | 0.0 | 0.0 | 0.00 | 0.00 | 0.00 | 88 | 851.0 |
| 20260507011614 | 1 | 45 | 0.0 | 0.0 | 0.00 | 0.00 | 0.00 | 88 | 851.0 |
| 20260507011114 | 1 | 157 | 0.0 | 6.4 | 0.00 | 0.00 | 0.00 | 87 | 851.0 |
| 20260507010614 | 1 | 180 | 0.0 | 3.2 | 0.00 | 0.00 | 0.00 | 87 | 851.0 |
| 20260507010114 | 1 | 22 | 0.0 | 8.0 | 0.00 | 0.00 | 0.00 | 86 | 850.8 |
| 20260507005614 | 2 | 45 | 0.0 | 8.0 | 0.00 | 0.00 | 0.00 | 86 | 850.9 |
| 20260507005114 | 2 | 337 | 3.2 | 6.4 | 0.00 | 0.00 | 0.00 | 85 | 850.8 |
| 20260507004614 | 2 | 270 | 0.0 | 9.7 | 0.00 | 0.00 | 0.00 | 85 | 851.0 |
| 20260507004114 | 2 | 180 | 9.7 | 9.7 | 0.00 | 0.00 | 0.00 | 85 | 850.9 |
| 20260507003614 | 2 | 180 | 6.4 | 12.9 | 0.00 | 0.00 | 0.00 | 85 | 850.9 |
| 20260507003114 | 2 | 0 | 0.0 | 9.7 | 0.00 | 0.00 | 0.00 | 85 | 850.9 |
| 20260507002614 | 2 | 315 | 0.0 | 9.7 | 0.00 | 0.00 | 0.00 | 84 | 851.0 |
| 20260507002114 | 2 | 112 | 0.0 | 9.7 | 0.00 | 0.00 | 0.00 | 85 | 850.9 |
| 20260507001614 | 2 | 337 | 0.0 | 6.4 | 0.00 | 0.00 | 0.00 | 85 | 851.1 |
| 20260507001114 | 2 | 0 | 6.4 | 8.0 | 0.00 | 0.00 | 0.00 | 85 | 851.0 |
| 20260507000614 | 2 | 247 | 0.0 | 6.4 | 0.00 | 0.00 | 0.00 | 86 | 851.0 |
| 20260507000114 | 2 | 337 | 0.0 | 9.7 | 0.00 | 0.00 | 0.00 | 89 | 851.0 |
| 20260506235614 | 2 | 0 | 1.6 | 8.0 | 0.00 | 0.00 | 0.00 | 89 | 851.1 |
| 20260506235114 | 2 | 337 | 0.0 | 11.3 | 0.00 | 0.00 | 0.00 | 90 | 851.2 |
| 20260506234614 | 2 | 202 | 1.6 | 8.0 | 0.00 | 0.00 | 0.00 | 90 | 851.2 |
| 20260506234114 | 2 | 337 | 0.0 | 4.8 | 0.00 | 0.00 | 0.00 | 90 | 851.2 |
| 20260506233614 | 2 | 45 | 0.0 | 0.0 | 0.00 | 0.00 | 0.00 | 91 | 851.1 |
| 20260506233114 | 2 | 0 | 0.0 | 1.6 | 0.00 | 0.00 | 0.00 | 91 | 851.1 |
| 20260506232614 | 2 | 0 | 0.0 | 1.6 | 0.00 | 0.00 | 0.00 | 91 | 851.0 |
| 20260506232114 | 2 | 202 | 0.0 | 8.0 | 0.00 | 0.00 | 0.00 | 91 | 851.1 |
| 20260506231614 | 2 | 292 | 0.0 | 9.7 | 0.00 | 0.00 | 0.00 | 91 | 851.1 |
| 20260506231114 | 2 | 337 | 0.0 | 9.7 | 0.00 | 0.00 | 0.00 | 91 | 851.3 |
| 20260506230614 | 2 | 225 | 4.8 | 4.8 | 0.00 | 0.00 | 0.00 | 91 | 851.2 |
| 20260506230114 | 2 | 135 | 0.0 | 12.9 | 0.00 | 0.00 | 0.00 | 91 | 851.2 |
| 20260506225615 | 2 | 157 | 0.0 | 14.5 | 0.00 | 0.00 | 0.00 | 91 | 851.1 |
| 20260506225114 | 2 | 135 | 0.0 | 9.7 | 0.00 | 0.00 | 0.00 | 93 | 851.2 |
| 20260506224615 | 2 | 180 | 8.0 | 16.1 | 0.00 | 0.00 | 0.00 | 94 | 851.3 |
| 20260506224115 | 2 | 180 | 1.6 | 11.3 | 0.00 | 0.00 | 0.00 | 94 | 851.1 |
| 20260506223615 | 2 | 202 | 0.0 | 16.1 | 0.00 | 0.00 | 0.00 | 94 | 851.3 |
| 20260506223115 | 2 | 180 | 16.1 | 16.1 | 0.00 | 0.00 | 0.00 | 94 | 851.2 |
| 20260506222615 | 2 | 337 | 0.0 | 11.3 | 0.00 | 0.00 | 0.00 | 95 | 851.2 |
| 20260506222115 | 2 | 202 | 0.0 | 9.7 | 0.00 | 0.00 | 0.00 | 95 | 851.1 |
| 20260506221615 | 2 | 337 | 0.0 | 0.0 | 0.00 | 0.00 | 0.00 | 95 | 851.1 |
| 20260506221115 | 2 | 315 | 1.6 | 9.7 | 0.00 | 0.00 | 0.00 | 94 | 851.2 |
| 20260506220615 | 2 | 180 | 3.2 | 9.7 | 0.00 | 0.00 | 0.00 | 94 | 851.2 |
| 20260506220115 | 2 | 292 | 0.0 | 17.7 | 0.00 | 0.00 | 0.00 | 94 | 851.2 |
| 20260506215615 | 2 | 292 | 0.0 | 0.0 | 0.00 | 0.00 | 0.00 | 94 | 851.3 |
| 20260506215115 | 2 | 112 | 8.0 | 11.3 | 0.00 | 0.00 | 0.00 | 94 | 851.2 |
| 20260506214615 | 2 | 45 | 1.6 | 12.9 | 0.00 | 0.00 | 0.00 | 94 | 851.1 |
| 20260506214115 | 2 | 0 | 0.0 | 11.3 | 0.00 | 0.00 | 0.00 | 94 | 851.1 |
| 20260506213615 | 2 | 315 | 0.0 | 16.1 | 0.00 | 0.00 | 0.00 | 94 | 851.3 |
| 20260506213115 | 2 | 180 | 11.3 | 11.3 | 0.00 | 0.00 | 0.00 | 94 | 851.3 |
| 20260506212615 | 3 | 180 | 0.0 | 9.7 | 0.00 | 0.00 | 0.00 | 94 | 851.4 |
| 20260506212115 | 3 | 337 | 0.0 | 0.0 | 0.00 | 0.00 | 0.00 | 94 | 851.4 |
| 20260506211615 | 3 | 315 | 0.0 | 6.4 | 0.00 | 0.00 | 0.00 | 94 | 851.4 |
| 20260506211115 | 3 | 157 | 0.0 | 8.0 | 0.00 | 0.00 | 0.00 | 94 | 851.4 |
| 20260506210615 | 3 | 337 | 0.0 | 4.8 | 0.00 | 0.00 | 0.00 | 94 | 851.3 |
| 20260506210115 | 3 | 135 | 0.0 | 0.0 | 0.00 | 0.00 | 0.00 | 94 | 851.4 |
| 20260506205615 | 3 | 337 | 0.0 | 6.4 | 0.00 | 0.00 | 0.00 | 94 | 851.4 |
| 20260506205115 | 3 | 202 | 0.0 | 4.8 | 0.00 | 0.00 | 0.00 | 94 | 851.4 |
| 20260506204615 | 3 | 180 | 0.0 | 6.4 | 0.00 | 0.00 | 0.00 | 94 | 851.4 |
| 20260506204115 | 3 | 315 | 0.0 | 0.0 | 0.00 | 0.00 | 0.00 | 94 | 851.3 |
| 20260506203615 | 3 | 247 | 0.0 | 0.0 | 0.00 | 0.00 | 0.00 | 94 | 851.3 |
| 20260506203115 | 3 | 315 | 0.0 | 11.3 | 0.00 | 0.00 | 0.00 | 94 | 851.1 |
| 20260506202615 | 3 | 315 | 0.0 | 1.6 | 0.00 | 0.00 | 0.00 | 94 | 851.1 |
| 20260506202115 | 3 | 337 | 0.0 | 4.8 | 0.00 | 0.00 | 0.00 | 94 | 851.1 |
| 20260506201615 | 3 | 247 | 0.0 | 9.7 | 0.00 | 0.00 | 0.00 | 94 | 851.3 |
| 20260506201115 | 3 | 180 | 0.0 | 1.6 | 0.00 | 0.00 | 0.00 | 94 | 851.2 |
| 20260506200615 | 3 | 180 | 0.0 | 0.0 | 0.00 | 0.00 | 0.00 | 94 | 851.0 |
| 20260506200115 | 3 | 337 | 0.0 | 6.4 | 0.00 | 0.00 | 0.00 | 94 | 851.0 |
| 20260506195615 | 3 | 45 | 0.0 | 6.4 | 0.00 | 0.00 | 0.00 | 94 | 851.0 |
| 20260506195115 | 3 | 0 | 0.0 | 9.7 | 0.00 | 0.00 | 0.00 | 94 | 851.0 |
| 20260506194615 | 3 | 135 | 0.0 | 12.9 | 0.00 | 0.00 | 0.00 | 94 | 850.9 |
| 20260506194115 | 3 | 202 | 4.8 | 6.4 | 0.00 | 0.00 | 0.00 | 94 | 850.7 |
| 20260506193615 | 3 | 22 | 0.0 | 9.7 | 0.00 | 0.00 | 0.00 | 94 | 850.8 |
| 20260506193115 | 3 | 202 | 4.8 | 6.4 | 0.00 | 0.00 | 0.00 | 94 | 850.8 |
| 20260506192615 | 3 | 180 | 0.0 | 8.0 | 0.00 | 0.00 | 0.00 | 93 | 850.9 |
| 20260506192115 | 3 | 67 | 0.0 | 14.5 | 0.00 | 0.00 | 0.00 | 93 | 850.9 |
| 20260506191615 | 3 | 0 | 6.4 | 12.9 | 0.00 | 0.00 | 0.00 | 93 | 850.7 |
| 20260506191115 | 3 | 67 | 3.2 | 19.3 | 0.00 | 0.00 | 0.00 | 93 | 850.6 |
| 20260506190615 | 3 | 180 | 3.2 | 11.3 | 0.00 | 0.00 | 0.00 | 93 | 850.5 |
| 20260506190115 | 3 | 157 | 1.6 | 14.5 | 0.00 | 0.00 | 0.00 | 93 | 850.6 |
| 20260506185615 | 3 | 315 | 0.0 | 1.6 | 0.00 | 0.00 | 0.00 | 93 | 850.6 |
| 20260506185115 | 3 | 270 | 0.0 | 0.0 | 0.00 | 0.00 | 0.00 | 93 | 850.7 |
| 20260506184615 | 3 | 0 | 0.0 | 0.0 | 0.00 | 0.00 | 0.00 | 93 | 850.8 |
| 20260506184115 | 3 | 337 | 0.0 | 1.6 | 0.00 | 0.00 | 0.00 | 94 | 850.6 |
| 20260506183615 | 3 | 135 | 0.0 | 1.6 | 0.00 | 0.00 | 0.00 | 93 | 850.6 |
| 20260506183115 | 3 | 315 | 0.0 | 0.0 | 0.00 | 0.00 | 0.00 | 93 | 850.7 |
| 20260506182615 | 3 | 292 | 0.0 | 0.0 | 0.00 | 0.00 | 0.00 | 93 | 850.7 |
| 20260506182115 | 3 | 180 | 0.0 | 0.0 | 0.00 | 0.00 | 0.00 | 93 | 850.6 |
| 20260506181615 | 3 | 180 | 0.0 | 3.2 | 0.00 | 0.00 | 0.00 | 93 | 850.6 |
| 20260506181115 | 3 | 180 | 0.0 | 1.6 | 0.00 | 0.00 | 0.00 | 93 | 850.7 |
| 20260506180615 | 3 | 337 | 0.0 | 3.2 | 0.00 | 0.00 | 0.00 | 93 | 850.6 |
| 20260506180115 | 3 | 112 | 3.2 | 8.0 | 0.00 | 0.00 | 0.00 | 93 | 850.5 |
| 20260506175615 | 3 | 202 | 0.0 | 1.6 | 0.00 | 0.00 | 0.00 | 93 | 850.6 |
| 20260506175115 | 3 | 270 | 0.0 | 11.3 | 0.00 | 0.00 | 0.00 | 93 | 850.5 |
| 20260506174615 | 4 | 22 | 3.2 | 8.0 | 0.00 | 0.00 | 0.00 | 93 | 850.5 |
| 20260506174115 | 4 | 157 | 0.0 | 8.0 | 0.00 | 0.00 | 0.00 | 93 | 850.6 |
| 20260506173615 | 4 | 337 | 0.0 | 8.0 | 0.00 | 0.00 | 0.00 | 93 | 850.4 |
| 20260506173115 | 4 | 180 | 9.7 | 9.7 | 0.00 | 0.00 | 0.00 | 92 | 850.4 |
| 20260506172615 | 4 | 67 | 0.0 | 6.4 | 0.00 | 0.00 | 0.00 | 92 | 850.4 |
| 20260506172115 | 4 | 225 | 0.0 | 8.0 | 0.00 | 0.00 | 0.00 | 91 | 850.2 |
| 20260506171615 | 4 | 180 | 3.2 | 3.2 | 0.00 | 0.00 | 0.00 | 91 | 850.3 |
| 20260506171115 | 4 | 180 | 0.0 | 0.0 | 0.00 | 0.00 | 0.00 | 90 | 850.3 |
| 20260506170615 | 5 | 157 | 0.0 | 3.2 | 0.00 | 0.00 | 0.00 | 90 | 850.2 |
| 20260506170115 | 4 | 180 | 0.0 | 0.0 | 0.00 | 0.00 | 0.00 | 90 | 850.1 |
| 20260506165615 | 4 | 337 | 0.0 | 16.1 | 0.00 | 0.00 | 0.00 | 90 | 850.0 |
| 20260506165115 | 4 | 112 | 0.0 | 9.7 | 0.00 | 0.00 | 0.00 | 90 | 850.1 |
| 20260506164615 | 4 | 180 | 9.7 | 11.3 | 0.00 | 0.00 | 0.00 | 90 | 850.0 |
| 20260506164115 | 5 | 180 | 0.0 | 3.2 | 0.00 | 0.00 | 0.00 | 90 | 850.0 |
| 20260506163615 | 5 | 180 | 0.0 | 3.2 | 0.00 | 0.00 | 0.00 | 90 | 849.9 |
| 20260506163115 | 5 | 22 | 0.0 | 0.0 | 0.00 | 0.00 | 0.00 | 91 | 849.9 |
| 20260506162615 | 5 | 315 | 0.0 | 11.3 | 0.00 | 0.00 | 0.00 | 91 | 849.9 |
| 20260506162115 | 5 | 180 | 4.8 | 8.0 | 0.00 | 0.00 | 0.00 | 92 | 850.0 |
| 20260506161615 | 5 | 337 | 0.0 | 6.4 | 0.00 | 0.00 | 0.00 | 92 | 850.0 |
| 20260506161115 | 5 | 180 | 0.0 | 1.6 | 0.00 | 0.00 | 0.00 | 92 | 850.1 |
| 20260506160615 | 5 | 180 | 1.6 | 1.6 | 0.00 | 0.00 | 0.00 | 93 | 850.1 |
| 20260506160115 | 5 | 180 | 0.0 | 3.2 | 0.00 | 0.00 | 0.00 | 93 | 850.0 |
| 20260506155615 | 5 | 202 | 0.0 | 4.8 | 0.00 | 0.00 | 0.00 | 92 | 850.1 |
| 20260506155115 | 5 | 337 | 0.0 | 8.0 | 0.00 | 0.00 | 0.00 | 92 | 850.2 |
| 20260506154615 | 5 | 180 | 3.2 | 6.4 | 0.00 | 0.00 | 0.00 | 92 | 850.1 |
| 20260506154115 | 5 | 180 | 0.0 | 1.6 | 0.00 | 0.00 | 0.00 | 91 | 850.1 |
| 20260506153615 | 5 | 180 | 1.6 | 4.8 | 0.00 | 0.00 | 0.00 | 91 | 850.1 |